Location: ????????
(60.4333°N, 46.4710°E)
Time: 19:43:12
(UTC+00:00)

USA 281 - Pass Details

Date: 25 November 2020
Orbit: 1074 x 1084 km, 106.0° (Epoch: 08 January)

Event Time Altitude Azimuth Distance (km) Brightness Sun altitude
Rises 15:18:48 0° 163° (SSE) 3,876 6.0 -22.7°
Reaches altitude 10° 15:21:22 10° 168° (SSE) 2,922 5.4 -23.0°
Maximum altitude 15:27:48 55° 245° (WSW) 1,281 3.8 -23.8°
Drops below altitude 10° 15:34:16 10° 323° (NW) 2,930 5.9 -24.6°
Sets 15:36:52 0° 328° (NNW) 3,888 6.6 -24.9°
